COSMOS 2491 DEB, 45130

Orbit data source: Space-Track

COSMOS 2491 DEB, 45130 is space debris in LEO originally from a launch on Wed, 25 Dec 2013 UTC launched from the Plesetsk Missile And Space Complex (PKMTR). Debris objects in space refer to the collection of defunct objects orbiting the Earth. Examples of debris include non-operational satellites, rocket bodies, and fragments generated from explosions, collisions, or faulty payload assembly.

Loading next visibility...
COSMOS 2491 DEB details
Identifier
45130, 2013-076AC
Orbit
LEO
Last TLE update20 hours ago
Origin
Flag of CISTsNIIKhM (CIS)
ManufacturerTsNIIKhM
MissionSpacecraft
Bus & MotorUnknown
MassUnknown
Launch date (UTC)
2013-12-25 (11 years ago)
Launch vehicleUnknown
Launch site
Plesetsk Missile And Space Complex (PKMTR)
Object type
Payload
Rocket body
Debris
Shape & HBRUnknown
Radar Cross SectionSmall (<0.1 m²)

Expand to show TLE details & history

TLE from 20 hours ago
0 COSMOS 2491 DEB
1 45130U 13076AC  24347.57307071  .00004970  00000-0  24503-1 0  9995
2 45130  82.4444 105.8922 0149241 292.0123  66.5173 12.68217544224655
Epoch: 2024-12-12T13:45Z
Definitive object data (Epoch: 2024-12-12T13:45:13.309Z)
Latitude-0.00006°
Longitude177.83527°
Altitude1,347.215 km
Speed7.205 km/s
True Right ascension07h 03m 34s
True Declination0° 00' 00"
Sunlit
Object was in full shadow at TLE epoch
Visualization TLE readout
Latitude51.27109°
Longitude-12.1747°
Altitude1,507.414 km
Speed7.065 km/s
Apparent Right ascension19h 07m 36s
Apparent Declination12° 01' 39"
Sunlit
Object is in daylight
Visualization observer readout
Local Sidereal Time07:52:04
Azimuth13.666° NNE
Elevation-37.039°
Doppler factor1
Orbital elements
Apogee altitude1,502.407 km
Perigee altitude1,270.645 km
Semi-major axis7,764.663 km
Eccentricity0.0149241
Inclination82.4444°
RAAN105.8922°
Arg. of periapsis292.0123°
True anomaly68.09738°
Mean anomaly66.5173°
Eccentric anomaly67.30619°
Mean motion3.17219 °/min
BSTAR0.024503
Orbital period113.49 mins
Loading maneuver chart data...
Loading historical data...
Loading historical data...
Loading historical data...
Loading historical data...
Loading historical data...
Loading historical data...
Loading historical data...

COSMOS 2491 DEB Visibility forecast

Observer location: undefined°, undefined

Span
Click to sort rows by Start time (UTC) header in descending order
Start Az.
Max El. time (UTC)
Max El. Az.
Max El.
End time (UTC)
End Az.
11 mins2024-12-13 10:44:19.405Z256.112° W2024-12-13 10:49:19.405Z294.632° NW18.28°2024-12-13 10:55:19.405Z339.685° N
14 mins2024-12-13 18:46:19.405Z11.658° NNE2024-12-13 18:53:19.405Z74.629° E30.434°2024-12-13 19:00:19.405Z133.639° SE
14 mins2024-12-13 20:41:19.405Z337.431° NNW2024-12-13 20:47:19.405Z280.404° WNW37.377°2024-12-13 20:55:19.405Z200.836° SSW
13 mins2024-12-14 07:31:19.405Z137.141° SSE2024-12-14 07:37:19.405Z81.723° E27.954°2024-12-14 07:44:19.405Z26.191° NE
|